Theta_e
320 323 320 316 312 318 309 310 306 309 313 318 325 326 327 329 333 333 338 342 345 344 346 350 352 357 358 362 365 366 363 367
317 321 321 317 319 310 308 300 300 306 309 312 320 320 324 330 333 337 344 345 346 347 349 351 351 353 355 357 358 358 358 362
316 315 313 315 312 314 313 312 304 303 308 322 317 316 320 330 335 339 341 343 345 348 349 349 352 354 354 356 358 359 360 360
312 318 321 318 314 313 308 307 309 308 307 325 321 321 327 333 336 339 342 344 345 346 347 353 353 355 355 353 353 354 355 356
309 315 317 313 315 316 315 314 310 305 310 321 321 327 335 335 338 342 343 346 345 345 347 351 349 350 350 351 352 355 357 351
306 309 313 310 313 316 315 309 310 310 313 316 321 326 335 337 340 341 344 346 349 350 351 351 352 351 352 351 353 352 350 350
312 313 312 314 313 312 311 313 309 312 312 318 320 323 336 337 338 339 340 342 345 346 348 350 350 351 354 353 353 353 352 351
311 314 314 312 313 314 314 314 313 314 316 323 322 325 329 336 337 337 339 340 342 344 345 347 349 351 352 353 354 353 348 345
307 312 312 308 312 313 313 316 315 312 320 327 325 325 334 335 335 336 338 339 340 341 344 345 346 350 347 349 351 350 345 344
306 310 302 313 318 316 314 316 318 319 323 325 330 333 335 335 335 338 340 341 343 342 344 347 346 344 346 346 346 342 342 339
305 305 309 313 315 315 314 314 318 318 324 327 330 331 331 335 337 340 342 343 343 344 343 348 345 348 348 345 344 342 337 336
308 304 303 314 318 322 321 311 320 323 325 326 327 320 327 335 337 340 342 342 342 344 344 344 346 346 344 341 340 335 334 332
308 306 311 320 321 322 309 311 320 324 328 328 326 330 337 339 339 341 343 343 344 343 342 342 343 343 342 339 332 333 332 330
311 308 306 323 323 315 323 322 321 325 329 328 336 337 339 341 341 342 341 340 341 340 338 338 339 339 336 331 331 331 328 327
316 316 326 325 323 326 324 324 326 330 335 339 337 338 340 340 340 340 339 340 338 334 332 332 332 334 331 328 328 326 325 324
315 323 324 326 328 326 326 327 328 330 334 334 336 337 338 339 338 337 337 335 335 333 329 327 329 328 328 327 325 323 321 322
320 324 324 323 322 320 329 330 328 331 332 333 336 337 338 337 338 335 335 334 334 333 329 325 325 325 322 323 323 320 322 322
317 328 332 322 323 325 331 328 331 331 332 336 338 339 338 337 337 335 332 333 331 329 326 323 322 322 323 322 321 319 318 317
324 327 328 331 331 332 330 331 331 333 338 338 339 338 337 335 336 328 329 327 326 325 325 325 323 322 322 321 321 321 319 321
Wind_Speed
19 22 15 17 12 13 9 4 8 3 9 26 14 11 11 10 8 5 8 16 1 10 7 12 9 11 7 10 7 8 11 8
19 20 19 15 14 3 5 8 8 6 13 9 7 23 32 10 9 7 11 12 11 12 13 10 7 6 6 6 5 10 10 3
19 18 18 15 13 6 14 22 8 6 6 14 16 20 28 10 12 10 10 11 11 11 10 8 14 12 12 11 8 8 7 7
15 16 23 21 14 17 13 12 10 9 3 8 10 18 21 13 14 13 12 12 12 11 9 11 12 11 10 9 9 7 6 5
5 17 11 11 18 14 14 12 14 13 4 10 13 19 13 12 13 11 11 10 11 12 10 9 10 9 8 7 5 6 6 6
9 10 10 19 20 13 19 12 4 10 12 8 13 8 7 10 10 11 10 9 10 11 10 9 9 8 8 7 6 7 6 5
13 9 18 9 15 16 11 16 16 12 7 22 13 1 9 12 13 11 12 12 11 11 9 10 9 7 7 6 7 5 8 7
18 16 21 9 8 11 13 14 14 5 8 18 21 20 21 13 14 13 12 13 12 12 12 11 9 8 7 6 5 5 9 8
15 17 12 17 13 15 12 17 7 4 13 21 24 27 17 17 15 13 13 12 12 11 10 9 10 8 8 6 8 7 9 7
13 15 18 18 12 17 4 4 12 9 19 11 16 16 16 14 13 14 13 13 11 11 10 10 10 12 10 10 8 7 7 6
13 16 16 20 20 7 7 4 11 19 13 15 13 14 12 13 13 13 13 11 10 11 11 10 11 9 8 8 7 7 6 5
12 18 20 3 4 13 13 10 19 10 13 16 14 9 11 14 14 16 13 11 12 13 11 10 8 8 7 7 7 8 5 6
14 14 6 9 12 3 5 3 22 10 14 12 9 4 17 15 13 14 11 12 13 10 9 8 5 7 5 6 9 6 5 5
10 16 11 1 7 6 2 7 17 5 14 10 15 14 14 15 13 13 14 12 10 10 9 7 6 7 7 9 6 4 3 3
3 5 7 3 6 8 7 10 18 9 18 17 14 14 15 13 13 12 12 10 10 10 9 8 7 5 8 6 4 2 1 2
8 8 12 10 10 10 21 14 10 12 15 16 15 15 15 14 13 12 11 10 10 10 9 8 6 7 7 5 3 0 2 2
2 18 14 9 9 16 18 9 10 14 12 14 15 15 14 13 12 12 9 9 8 8 8 8 6 5 6 5 4 4 3 3
5 9 6 21 20 28 5 7 11 10 11 13 14 14 14 12 10 10 10 8 7 7 7 7 6 6 5 4 3 4 5 5
7 2 4 12 9 11 10 8 9 11 13 12 15 14 15 12 11 11 10 9 7 7 7 6 5 5 4 2 2 4 4 5
Wind_Direction
211 245 232 213 248 89 130 242 223 197 277 240 206 141 129 117 126 158 62 78 307 132 117 91 95 96 118 126 155 200 208 212
212 228 229 234 238 174 40 337 264 210 233 177 77 62 322 128 110 83 69 81 87 83 71 69 98 108 96 117 106 36 57 108
223 196 240 217 229 201 228 184 246 210 235 89 131 138 227 148 126 124 109 95 91 84 88 99 80 45 84 84 61 67 64 62
240 196 213 239 227 225 245 242 257 301 130 20 19 274 223 132 135 126 119 112 110 109 107 79 76 79 81 84 84 87 96 89
131 239 196 236 241 253 274 289 285 251 71 337 13 334 92 127 126 123 118 123 126 122 115 106 100 93 93 91 92 95 116 90
218 318 233 206 226 226 248 246 213 103 132 163 193 211 170 150 141 133 134 119 109 105 98 103 112 128 137 116 107 116 124 109
277 163 323 226 219 231 260 259 287 140 271 188 184 165 177 169 149 155 144 141 136 130 139 139 148 150 140 114 134 124 89 79
271 193 224 207 216 227 219 272 284 154 73 123 127 191 247 173 162 165 157 146 152 146 153 155 154 156 153 108 131 116 90 82
254 251 252 256 225 237 245 216 258 287 94 132 163 194 179 173 168 158 154 147 144 151 153 149 150 121 109 117 89 83 80 80
249 253 247 256 239 219 171 1 23 349 162 142 131 148 163 164 156 157 145 148 147 137 126 137 132 112 119 111 99 107 90 71
241 241 254 233 243 182 250 197 140 249 121 119 131 136 143 152 156 153 142 147 150 134 140 106 109 114 120 109 112 112 98 79
213 241 241 279 4 11 185 198 200 161 117 129 141 174 161 152 152 143 150 155 134 121 120 115 127 132 135 133 108 92 90 76
225 236 206 49 13 54 115 286 332 122 125 137 122 85 123 136 138 138 142 119 107 126 121 115 135 127 106 107 89 81 84 95
245 225 211 86 96 71 210 61 306 102 122 133 109 125 126 123 126 128 116 112 130 107 112 97 91 105 99 81 89 90 107 112
21 64 159 191 128 98 78 274 212 114 109 112 118 125 123 134 124 120 127 137 127 117 108 91 56 65 108 105 98 104 128 87
27 95 78 61 11 347 308 162 133 123 117 128 136 137 139 134 135 143 138 133 124 131 118 103 87 77 89 92 78 105 45 319
182 119 88 70 66 307 266 119 118 105 128 135 138 139 140 141 139 135 132 127 128 118 121 110 101 88 96 93 46 353 354 305
55 36 68 177 195 217 117 121 114 132 129 128 135 136 140 135 131 132 131 122 122 115 114 117 123 107 91 86 59 6 321 335
338 42 55 122 138 153 152 144 144 139 127 132 130 137 136 129 129 121 129 130 130 125 118 119 121 117 112 68 40 3 336 319